[[{"header":{"parameterUnit":"m.s-1","parameterCategory":1,"la1":30.2991,"la2":30.254,"lo1":-89.0895,"lo2":-89.0444,"dy":0.0017,"dx":0.0017,"nx":28,"ny":28,"refTime":"2024-10-20T09:00:00:Z","depth":0,"parameterNumber":2,"parameterNumberName":"U-component_of_WINDS"},"data":[0,0,0,0,0,0,0,0,0,0,0,0,0,0,0,0,0,0,0,0,0,0,0,0,0,0,0,0,0,0,0,0,0,0,0,0,0,0,0,0,0,0,0,0,0,0,0,0,0,0,0,0,0,0,0,0,0,0,-2.7465,-2.7466,0,-2.7497,-2.7498,-2.7498,-2.7365,-2.7361,-2.7358,-2.7354,-2.7386,-2.739,-2.7395,0,0,0,0,0,0,0,0,0,0,0,0,0,-2.7289,-2.7293,-2.7465,-2.7466,-2.7466,-2.7497,-2.7498,-2.7498,-2.7366,-2.7361,-2.7357,-2.7352,-2.7384,-2.739,-2.7395,0,0,0,0,0,0,0,0,0,0,0,0,0,-2.7348,-2.7294,-2.7465,-2.7404,-2.7399,-2.7497,-2.7498,-2.7498,-2.7367,-2.7361,-2.7355,-2.735,-2.7383,-2.7389,-2.7396,-2.7555,0,0,-2.7416,-2.7419,0,0,0,0,0,0,0,0,-2.7345,-2.7354,-2.7413,-2.7408,-2.7403,-2.7421,-2.7447,-2.7517,-2.7368,-2.7379,-2.7354,-2.7347,-2.7402,-2.7407,-2.7426,-2.7556,-2.7557,-2.7417,-2.7421,-2.7424,-2.7426,0,0,0,0,0,0,0,-2.7341,-2.7352,-2.7478,-2.7414,-2.7408,-2.7375,-2.7376,-2.746,-2.7423,-2.7378,-2.7368,-2.7374,-2.7399,-2.742,-2.7426,-2.7558,-2.7417,-2.7423,-2.7427,-2.743,-2.7821,-2.7827,0,0,0,0,0,0,-2.7345,-2.735,-2.7477,-2.7479,-2.7359,-2.7383,-2.7385,-2.7421,-2.7422,-2.7416,-2.7379,-2.7367,-2.7411,-2.7418,-2.7426,-2.7614,-2.7424,-2.743,-2.7434,-2.7815,-2.7822,-2.7829,0,0,0,0,0,0,-2.7342,-2.7357,-2.7475,-2.7412,-2.7424,-2.7392,-2.7434,-2.7425,-2.7446,-2.7423,-2.7415,-2.7407,-2.7407,-2.7417,-2.7524,-2.7613,-2.7433,-2.7439,-2.7807,-2.7817,-2.7826,-2.7989,0,0,0,0,0,0,-2.7337,-2.7357,-2.7417,-2.7414,-2.7428,-2.7574,-2.7439,-2.743,-2.7458,-2.7444,-2.7448,-2.7443,-2.7403,-2.7515,-2.7531,-2.7619,-2.7445,-2.7799,-2.7812,-2.7823,-2.7976,-2.8003,-2.8027,0,0,0,0,0,-2.7331,-2.7461,-2.7421,-2.7437,-2.7503,-2.7579,-2.7587,-2.7539,-2.7466,-2.7526,-2.7511,-2.7442,-2.76,-2.7527,-2.7544,-2.7636,-2.7793,-2.7808,-2.7822,-2.7965,-2.7998,-2.8026,0,0,0,0,0,0,-2.7475,-2.746,-2.7415,-2.7548,-2.7566,-2.7556,-2.7631,-2.7576,-2.7614,-2.7599,-2.7538,-2.754,-2.7658,-2.7656,-2.7575,-2.779,-2.7684,-2.7703,-2.7787,-2.7818,-2.7843,-2.7842,-2.745,0,0,0,0,0,-2.7523,-2.7586,-2.7569,-2.7688,-2.7699,-2.7664,-2.7695,-2.7657,-2.7673,-2.768,-2.7672,-2.769,-2.7744,-2.778,-2.7828,-2.7974,-2.7974,-2.8045,-2.8071,-2.8092,-2.8109,-2.8188,-2.8221,-2.7876,-2.7876,-2.7876,0,0,-2.7621,-2.762,-2.7664,-2.7717,-2.7726,-2.7794,-2.7671,-2.7747,-2.7797,-2.7691,-2.7793,-2.7788,-2.7803,-2.7932,-2.7987,-2.7934,-2.8204,-2.811,-2.8127,-2.8133,-2.8206,-2.8239,-2.8268,-2.7886,-2.7884,-2.7883,0,0,-2.7836,-2.7841,-2.7942,-2.7954,-2.797,-2.7945,-2.797,-2.7969,-2.7962,-2.8063,-2.7985,-2.8043,-2.8136,-2.8151,-2.8171,-2.8391,-2.833,-2.8408,-2.8542,-2.862,-2.8647,-2.8671,-2.8752,-2.8781,-2.8425,-2.8426,-2.8426,0,-2.7956,-2.8055,-2.8,-2.8082,-2.8108,-2.8016,-2.8118,-2.8132,-2.8163,-2.8183,-2.8122,-2.8238,-2.8242,-2.8373,-2.8427,-2.8446,-2.8472,-2.8409,-2.8648,-2.8671,-2.8692,-2.8769,-2.8799,-2.8435,-2.8434,-2.8433,-2.8432,0,-2.8203,-2.8273,-2.8352,-2.8386,-2.842,-2.8512,-2.8471,-2.8513,-2.8471,-2.8453,-2.8558,-2.8559,-2.8606,-2.8634,-2.8594,-2.876,-2.8727,-2.8658,-2.8551,-2.8736,-2.8807,-2.8835,-2.8449,-2.8446,-2.8443,-2.844,0,0,-2.8511,-2.8513,-2.8544,-2.8558,-2.8569,-2.8622,-2.8709,-2.8756,-2.8794,-2.8817,-2.889,-2.8971,-2.8908,-2.8931,-2.8891,-2.8959,-2.9136,-2.8881,-2.8881,-2.8931,-2.9322,-2.9376,-2.9411,-2.9095,-2.91,-2.9104,-2.9322,0,-2.8723,-2.8874,-2.8828,-2.8979,-2.9044,-2.8957,-2.9033,-2.9048,-2.9034,-2.9086,-2.9069,-2.9129,-2.9039,-2.9053,-2.9116,-2.9102,-2.9215,-2.9085,-2.9163,-2.9167,-2.9165,-2.9448,-2.9504,-2.971,-2.9349,-2.9353,-2.9357,0,-2.8991,-2.9028,-2.9187,-2.9188,-2.9213,-2.9283,-2.9323,-2.9373,-2.9389,-2.9373,-2.94,-2.9346,-2.9432,-2.9323,-2.9441,-2.9354,-2.9383,-2.9381,-2.9387,-2.9395,-2.9275,-2.9465,-2.9774,-2.9806,-2.94,-2.9396,-2.9393,0,-2.9204,-2.9291,-2.9398,-2.9413,-2.9416,-2.9468,-2.9472,-2.9481,-2.9512,-2.9547,-2.9567,-2.961,-2.9635,-2.967,-2.963,-2.9554,-2.9755,-2.9642,-2.9746,-2.9748,-2.9794,-2.9793,-3.0115,-2.9809,-2.9809,-2.9808,-2.9807,0,-2.9447,-2.9549,-2.9494,-2.956,-2.9671,-2.9616,-2.9727,-2.9721,-2.973,-2.9794,-2.9719,-2.9781,-2.9722,-2.9778,-2.9747,-2.9851,-2.9861,-2.9852,-2.9843,-2.9861,-2.9863,-2.9881,-2.9867,-2.9816,-2.9814,-2.9813,-2.9811,0,-2.9704,-2.9671,-2.9782,-2.9777,-2.9777,-2.986,-2.9855,-2.9916,-2.9895,-2.9977,-2.9993,-2.9962,-3.0023,-2.9986,-3.0048,-3.0027,-3.0164,-3.0134,-3.016,-3.0153,-3.0259,-3.0251,-3.0607,-3.0652,-3.0315,-3.0318,-3.0321,0,-2.9863,-2.9939,-2.9942,-2.998,-2.9989,-3.005,-3.0082,-3.003,-3.0067,-3.009,-3.0149,-3.0205,-3.0247,-3.035,-3.0332,-3.038,-3.0352,-3.0474,-3.0359,-3.0375,-3.0357,-3.0355,-3.0363,-3.0498,-3.0502,-3.0505,-3.0507,0,-3.015,-3.013,-3.0179,-3.0224,-3.0265,-3.0297,-3.0323,-3.0358,-3.0307,-3.0352,-3.0414,-3.0447,-3.0512,-3.0568,-3.0609,-3.0612,-3.0553,-3.0543,-3.057,-3.059,-3.0603,-3.06,-3.0226,-3.0536,-3.0533,-3.0531,-3.053,-3.0528,-3.0364,-3.0428,-3.0441,-3.0499,-3.0513,-3.054,-3.0598,-3.0585,-3.0637,-3.0686,-3.0652,-3.0727,-3.074,-3.0789,-3.08,-3.0858,-3.0808,-3.0847,-3.0857,-3.0868,-3.0884,-3.0592,-3.0864,-3.0863,-3.0862,-3.0862,-3.0861,0,-3.0649,-3.0653,-3.0707,-3.0747,-3.0793,-3.0732,-3.0758,-3.08,-3.0868,-3.0885,-3.0928,-3.1002,-3.1056,-3.1043,-3.1093,-3.1142,-3.1116,-3.1157,-3.1154,-3.1156,-3.0924,-3.0897,-3.1177,-3.1177,-3.1177,-3.1177,-3.1177,-3.1177,-3.0803,-3.091,-3.0892,-3.1005,-3.1007,-3.1081,-3.1102,-3.1126,-3.114,-3.1225,-3.1271,-3.1262,-3.1267,-3.1317,-3.1364,-3.1359,-3.1382,-3.1434,-3.1419,-3.1203,-3.1172,-3.1142,-3.1117,-3.1438,-3.1439,-3.1646,-3.1648,-3.165]},{"header":{"parameterUnit":"m.s-1","parameterCategory":1,"la1":30.2991,"la2":30.254,"lo1":-89.0895,"lo2":-89.0444,"dy":0.0017,"dx":0.0017,"nx":28,"ny":28,"refTime":"2024-10-20T09:00:00:Z","depth":0,"parameterNumber":3,"parameterNumberName":"V-component_of_WINDS"},"data":[0,0,0,0,0,0,0,0,0,0,0,0,0,0,0,0,0,0,0,0,0,0,0,0,0,0,0,0,0,0,0,0,0,0,0,0,0,0,0,0,0,0,0,0,0,0,0,0,0,0,0,0,0,0,0,0,0,0,-1.7131,-1.7131,0,-1.7175,-1.7175,-1.7176,-1.7201,-1.7201,-1.7201,-1.7201,-1.7243,-1.7244,-1.7245,0,0,0,0,0,0,0,0,0,0,0,0,0,-1.7064,-1.7065,-1.7131,-1.7131,-1.7132,-1.7175,-1.7175,-1.7176,-1.7201,-1.7201,-1.7201,-1.7201,-1.7243,-1.7244,-1.7245,0,0,0,0,0,0,0,0,0,0,0,0,0,-1.7099,-1.7065,-1.7131,-1.7149,-1.7152,-1.7175,-1.7175,-1.7176,-1.7201,-1.7201,-1.7201,-1.7201,-1.7243,-1.7244,-1.7246,-1.7252,0,0,-1.725,-1.7251,0,0,0,0,0,0,0,0,-1.7097,-1.7101,-1.7146,-1.7148,-1.7151,-1.7183,-1.7167,-1.7202,-1.7201,-1.7182,-1.7201,-1.7201,-1.7223,-1.7226,-1.7234,-1.7254,-1.7256,-1.725,-1.7251,-1.7252,-1.7253,0,0,0,0,0,0,0,-1.7094,-1.7099,-1.7148,-1.7147,-1.7149,-1.7154,-1.7159,-1.7174,-1.7201,-1.7184,-1.7186,-1.7191,-1.7224,-1.7232,-1.7235,-1.7257,-1.725,-1.7252,-1.7253,-1.7253,-1.7284,-1.7284,0,0,0,0,0,0,-1.7089,-1.7097,-1.7147,-1.7149,-1.7124,-1.7155,-1.7161,-1.7172,-1.7201,-1.7206,-1.719,-1.7192,-1.723,-1.7233,-1.7237,-1.7246,-1.7252,-1.7254,-1.7254,-1.7284,-1.7284,-1.7283,0,0,0,0,0,0,-1.7088,-1.7094,-1.7145,-1.7124,-1.7131,-1.7157,-1.7169,-1.7173,-1.7181,-1.7206,-1.7211,-1.7194,-1.723,-1.7234,-1.7248,-1.7248,-1.7254,-1.7256,-1.7284,-1.7284,-1.7284,-1.7265,0,0,0,0,0,0,-1.7086,-1.7093,-1.7097,-1.7124,-1.7132,-1.7157,-1.7169,-1.7174,-1.7184,-1.7186,-1.7211,-1.7215,-1.723,-1.7246,-1.725,-1.725,-1.7257,-1.7284,-1.7284,-1.7284,-1.7265,-1.7264,-1.7262,0,0,0,0,0,-1.7083,-1.7089,-1.7097,-1.7103,-1.7138,-1.7157,-1.7161,-1.718,-1.7184,-1.7188,-1.7203,-1.7214,-1.7247,-1.7247,-1.7252,-1.7252,-1.7284,-1.7284,-1.7284,-1.7266,-1.7264,-1.7263,0,0,0,0,0,0,-1.7061,-1.7093,-1.7102,-1.7117,-1.7134,-1.7161,-1.7166,-1.7177,-1.7193,-1.7194,-1.7215,-1.722,-1.7231,-1.7243,-1.7243,-1.726,-1.7267,-1.7267,-1.7252,-1.725,-1.7249,-1.7245,-1.7258,0,0,0,0,0,-1.7058,-1.7072,-1.7099,-1.711,-1.7118,-1.714,-1.715,-1.7162,-1.718,-1.7187,-1.7204,-1.722,-1.7234,-1.7243,-1.7257,-1.7267,-1.7272,-1.727,-1.7268,-1.7267,-1.7267,-1.7272,-1.7271,-1.7283,-1.7283,-1.7283,0,0,-1.7051,-1.7071,-1.7078,-1.7106,-1.712,-1.7133,-1.7146,-1.716,-1.7169,-1.7189,-1.7203,-1.7216,-1.7235,-1.7247,-1.7253,-1.7257,-1.7265,-1.7266,-1.7265,-1.7266,-1.7272,-1.7271,-1.727,-1.7282,-1.7282,-1.7282,0,0,-1.7046,-1.7063,-1.7073,-1.7088,-1.711,-1.7125,-1.7127,-1.7152,-1.7161,-1.7176,-1.7191,-1.7201,-1.7225,-1.7238,-1.7248,-1.7246,-1.7256,-1.725,-1.7242,-1.7247,-1.7246,-1.7245,-1.7244,-1.7243,-1.725,-1.725,-1.725,0,-1.7035,-1.7057,-1.7077,-1.7089,-1.71,-1.7119,-1.7129,-1.7141,-1.7167,-1.7173,-1.7178,-1.7207,-1.7221,-1.7236,-1.7235,-1.7243,-1.7245,-1.7247,-1.7245,-1.7244,-1.7244,-1.7242,-1.7242,-1.7249,-1.7249,-1.7249,-1.7249,0,-1.7042,-1.7056,-1.7061,-1.7086,-1.7097,-1.7108,-1.7129,-1.7138,-1.7149,-1.7162,-1.7176,-1.7194,-1.7212,-1.7216,-1.7227,-1.7231,-1.7233,-1.7241,-1.7248,-1.7241,-1.724,-1.724,-1.7248,-1.7248,-1.7248,-1.7248,0,0,-1.7025,-1.706,-1.7061,-1.7072,-1.7097,-1.7108,-1.7119,-1.7137,-1.7144,-1.716,-1.7169,-1.7188,-1.7195,-1.7205,-1.7218,-1.7222,-1.7218,-1.7229,-1.7229,-1.7226,-1.7223,-1.7217,-1.7217,-1.7225,-1.7225,-1.7225,-1.7221,0,-1.7023,-1.7045,-1.7063,-1.7078,-1.709,-1.7108,-1.7117,-1.7133,-1.7145,-1.7157,-1.717,-1.7183,-1.7192,-1.7198,-1.7203,-1.7218,-1.7218,-1.7218,-1.7232,-1.7233,-1.7227,-1.7216,-1.721,-1.7206,-1.7221,-1.7221,-1.7221,0,-1.7025,-1.7041,-1.7057,-1.708,-1.7086,-1.7094,-1.7111,-1.7122,-1.714,-1.7148,-1.716,-1.7172,-1.7183,-1.7189,-1.7204,-1.7203,-1.721,-1.7218,-1.7218,-1.722,-1.7226,-1.7217,-1.7206,-1.7205,-1.7221,-1.7221,-1.7221,0,-1.701,-1.7036,-1.7048,-1.7057,-1.7084,-1.7089,-1.71,-1.7118,-1.7127,-1.7142,-1.7148,-1.7163,-1.7171,-1.7182,-1.7197,-1.7201,-1.721,-1.7217,-1.7216,-1.7216,-1.7218,-1.7217,-1.7206,-1.7222,-1.7222,-1.7222,-1.7222,0,-1.7006,-1.7016,-1.7042,-1.705,-1.706,-1.7079,-1.7088,-1.7101,-1.7116,-1.7125,-1.7141,-1.7149,-1.7169,-1.718,-1.7192,-1.7201,-1.7205,-1.7211,-1.7215,-1.721,-1.7209,-1.7215,-1.7215,-1.7222,-1.7222,-1.7222,-1.7222,0,-1.6992,-1.7011,-1.7025,-1.705,-1.7056,-1.7062,-1.7082,-1.7089,-1.7102,-1.7114,-1.7118,-1.7138,-1.7151,-1.7167,-1.7185,-1.7193,-1.7201,-1.7206,-1.7196,-1.7197,-1.7195,-1.7195,-1.7187,-1.7186,-1.7203,-1.7203,-1.7203,0,-1.6989,-1.6996,-1.7021,-1.7029,-1.704,-1.7052,-1.7061,-1.708,-1.7089,-1.7108,-1.7113,-1.7127,-1.7139,-1.7158,-1.7174,-1.7187,-1.7193,-1.7189,-1.7195,-1.7189,-1.7192,-1.7191,-1.7191,-1.7187,-1.7187,-1.7187,-1.7187,0,-1.6981,-1.6989,-1.7003,-1.7019,-1.703,-1.7043,-1.7057,-1.7062,-1.7083,-1.7092,-1.7106,-1.7115,-1.7133,-1.7146,-1.7162,-1.7172,-1.7182,-1.7185,-1.7185,-1.718,-1.7174,-1.7177,-1.7191,-1.7185,-1.7185,-1.7185,-1.7185,-1.7185,-1.6971,-1.6978,-1.6997,-1.7011,-1.7023,-1.7035,-1.7043,-1.7057,-1.7069,-1.7086,-1.7095,-1.7108,-1.7124,-1.7145,-1.7155,-1.7164,-1.7168,-1.7169,-1.7169,-1.7169,-1.7167,-1.7172,-1.7167,-1.7167,-1.7167,-1.7167,-1.7167,0,-1.6963,-1.6976,-1.6988,-1.7008,-1.7018,-1.7028,-1.7043,-1.7051,-1.7062,-1.7076,-1.7088,-1.7103,-1.7115,-1.7131,-1.7145,-1.7149,-1.7154,-1.7152,-1.7151,-1.7153,-1.7163,-1.7161,-1.7147,-1.7147,-1.7147,-1.7147,-1.7147,-1.7147,-1.6961,-1.6973,-1.6983,-1.7,-1.7012,-1.7025,-1.7033,-1.7044,-1.7055,-1.7071,-1.7082,-1.7092,-1.7107,-1.7121,-1.7132,-1.7137,-1.714,-1.7137,-1.7142,-1.7151,-1.7153,-1.7154,-1.7153,-1.7138,-1.7137,-1.7132,-1.7132,-1.7132]}]]